Location: Hradec Kralove
(50.2170°N, 15.8330°E)
Time: 08:46:14
(UTC+01:00)

X-37B - Pass Details

Date: 12 December 2022
Orbit: 277 x 277 km, 45.0° (Epoch: 01 November)

Event Time Altitude Azimuth Distance (km) Brightness Sun altitude
Rises 18:33:45 0° 257° (WSW) 1,915 5.5 -24.3°
Reaches altitude 10° 18:35:52 10° 241° (WSW) 1,102 3.8 -24.7°
Enters shadow 18:36:00 11° 239° (WSW) 1,056 3.6 -24.7°
